User: anonymous   Login
Location: Unspecified
(0.0000°N, 0.0000°E)
Time: 00:13:41
(UTC+00:00)
Language:

FLOCK 4H 5 - Orbit

View from above orbital plane
View from above orbital plane
View from above satellite
View from above satellite

Ground track
Ground track

The orbit is defined by the following mean orbital elements,

1 66708U          26145.46887366 +.00000000 +00000-0 +27432-3 0 00007
2 66708  97.4183 219.5357 0002143  84.2597 275.8883 15.20310835    07
Epoch (UTC): 25 May 2026 11:15:10
Eccentricity: 0.0002143
inclination: 97.4183°
perigee height: 503 km
apogee height: 506 km
right ascension of ascending node: 219.5357°
argument of perigee: 84.2597°
revolutions per day: 15.20310835
mean anomaly at epoch: 275.8883°

The dashed part of the orbit path shows where the satellite is in the earth's shadow,  

DLR